Wind_Speed
31 31 31 31 31 31 30 28 26 24 23 23 22 22 21 20 18 18 16 15 14 13 12 12 12 12 11 11 10 9 8 8 7 7 6 6 6 5 5 4 3 3 3 3 2 2 2 3 4
33 33 34 34 34 33 31 28 26 25 25 25 25 24 23 22 21 19 18 17 16 15 14 14 13 13 13 12 11 11 10 9 9 8 8 7 7 6 5 5 4 4 4 4 4 4 4 5 5
36 36 37 37 37 34 31 29 28 27 27 27 27 26 25 23 22 21 20 18 17 16 15 15 15 14 14 13 13 12 12 11 10 10 9 8 8 7 6 6 5 5 6 6 6 5 6 6 6
39 40 40 40 38 35 33 32 30 30 29 29 29 29 27 25 24 23 22 20 19 18 17 16 16 15 15 15 14 13 13 13 12 11 10 10 9 8 8 8 7 7 7 7 7 7 7 8 8
42 43 43 42 39 37 36 34 33 32 31 31 30 30 29 27 26 25 24 23 21 20 19 18 17 17 16 16 16 15 15 14 13 13 12 11 10 9 9 9 9 9 9 9 9 9 9 9 9
45 46 46 44 42 40 38 36 35 34 34 33 32 31 30 29 28 27 26 25 23 21 20 19 19 18 18 17 17 17 16 16 15 14 13 13 12 11 11 10 10 10 11 10 10 10 10 10 10
48 48 48 46 45 43 41 39 37 36 35 35 34 33 31 31 29 29 28 26 25 24 22 21 20 20 19 18 18 18 18 17 16 16 15 14 14 13 12 12 11 11 11 12 12 11 12 12 12
50 50 50 49 47 46 44 41 39 38 37 36 35 34 33 32 31 30 29 28 27 26 24 23 22 21 20 19 19 19 19 18 18 17 17 16 15 15 14 14 13 13 12 12 12 13 13 13 14
51 52 51 49 48 47 46 44 42 40 39 38 37 36 34 34 33 32 31 30 29 27 26 25 24 23 22 21 21 21 21 20 20 19 19 18 17 16 15 15 15 14 14 14 14 15 15 15 16
51 52 51 49 49 48 47 46 44 43 41 40 39 37 36 35 35 34 33 31 30 29 28 27 26 25 24 23 22 22 22 22 22 21 21 20 19 19 18 17 17 17 16 16 16 17 17 17 18
50 49 49 49 49 48 48 47 46 45 44 42 41 39 38 37 36 35 34 33 31 30 30 29 27 27 26 26 25 25 24 24 24 24 23 22 22 21 20 20 19 19 19 18 18 19 19 19 19
48 48 48 48 48 49 49 48 47 46 45 44 42 41 39 38 37 37 36 35 33 32 31 30 30 29 28 28 27 27 27 26 26 26 25 24 24 23 23 22 21 21 21 21 21 21 21 21 21
48 47 47 47 48 49 49 49 48 47 46 45 44 43 41 40 39 39 38 37 36 35 33 32 32 31 30 30 29 29 29 28 28 27 27 26 26 25 25 24 24 23 23 23 23 23 23 23 23
46 47 47 46 47 48 49 49 48 47 46 45 45 44 43 42 41 40 39 38 38 37 36 35 34 33 32 32 31 31 32 31 30 30 29 29 28 28 27 26 26 25 25 25 25 25 25 25 25
44 46 47 46 46 47 47 49 49 47 47 46 46 45 44 43 42 41 41 40 39 38 38 37 36 36 35 34 34 34 33 33 33 32 32 31 30 30 29 28 28 28 28 28 27 27 27 26 26
42 44 46 46 46 47 47 48 48 47 47 47 46 46 45 44 43 42 42 41 40 39 39 38 38 37 37 37 36 36 35 34 34 34 33 32 32 32 31 31 31 30 30 30 29 29 29 29 28
39 42 44 45 45 46 47 47 48 47 47 46 46 46 46 45 44 43 43 42 41 40 39 39 39 38 38 38 38 38 37 36 36 35 35 34 34 33 33 33 33 32 32 32 32 32 31 31 31
36 39 42 44 44 44 46 46 48 47 46 46 46 46 46 45 44 43 43 43 41 41 40 39 39 39 39 39 39 39 39 38 37 37 37 37 36 36 35 35 34 34 34 34 33 33 33 33 33
32 35 39 41 42 43 44 45 46 46 46 46 46 45 45 45 45 44 44 43 43 42 41 40 40 40 41 41 41 41 41 40 39 39 39 39 38 38 38 37 37 36 36 35 35 35 35 34 34
30 32 34 36 38 40 42 43 44 46 45 44 44 45 45 45 46 45 44 44 43 42 42 42 42 41 42 42 42 42 42 42 42 41 41 40 40 40 40 40 39 39 38 37 37 37 36 36 36
29 30 31 32 34 35 39 42 42 44 45 45 45 45 46 45 46 45 44 44 44 43 43 43 43 43 42 42 43 44 44 44 43 44 43 43 42 42 42 42 41 41 41 40 39 39 38 37 37
26 27 29 30 31 33 35 38 41 43 44 44 45 46 46 45 46 46 46 45 45 44 45 45 44 45 44 44 44 44 44 44 44 44 45 44 44 43 43 43 43 43 43 42 42 42 41 40 38
24 26 27 28 29 31 33 37 38 41 43 43 43 44 45 45 46 46 47 46 45 45 46 46 46 46 47 46 45 45 45 46 46 45 46 46 46 45 45 44 44 44 44 44 43 43 43 43 42
22 24 26 26 28 31 32 35 37 39 40 41 41 42 43 44 45 46 47 47 47 47 46 47 47 47 47 47 47 47 46 47 46 46 46 45 46 46 46 46 46 45 45 44 45 44 44 44 44
20 23 24 24 27 29 31 32 34 35 37 38 40 41 42 43 44 45 45 44 45 46 46 46 47 47 47 48 48 48 48 48 48 48 48 48 47 47 46 46 46 46 46 46 45 45 46 46 45
20 22 24 24 26 26 28 29 31 32 34 36 39 40 41 42 43 43 44 44 44 44 44 45 45 47 47 48 49 49 49 50 50 49 49 50 50 50 50 48 48 48 48 48 47 47 47 47 47
20 22 22 24 25 24 26 28 30 31 32 34 36 39 41 42 42 43 44 45 45 45 45 45 46 47 47 48 49 50 50 50 50 50 51 51 51 51 52 51 50 50 51 50 49 49 49 48 48
21 22 22 23 25 26 27 27 27 29 31 33 35 37 39 41 42 42 43 44 45 45 46 46 46 47 48 49 49 49 49 50 50 51 51 51 52 52 51 52 52 52 52 52 51 52 51 51 50
20 22 23 24 25 26 28 28 27 28 30 32 33 35 37 39 40 41 41 42 44 44 44 45 46 47 47 48 49 49 50 51 51 51 51 52 52 52 52 52 52 53 53 53 53 52 52 52 51
19 22 23 24 25 26 28 28 27 28 30 32 32 32 34 36 38 39 40 41 42 43 45 45 46 46 47 48 49 49 48 49 50 51 52 52 52 52 52 52 53 53 53 52 52 52 53 52 52
Wind_Direction
237 236 234 233 232 232 233 232 230 228 227 226 225 225 224 224 223 224 223 223 222 222 222 220 219 218 217 217 218 220 224 226 225 225 225 223 220 219 218 220 224 231 230 233 241 262 295 315 324
237 236 235 233 234 234 233 233 232 229 228 227 226 226 225 225 225 225 225 224 225 225 225 223 221 222 223 223 224 226 229 231 232 231 229 226 225 226 227 228 234 241 240 243 249 263 283 301 310
237 237 236 235 234 234 234 233 232 229 228 228 228 227 227 226 225 226 225 225 226 227 227 227 226 227 227 227 227 229 232 232 233 234 231 228 229 232 236 238 244 250 250 250 256 267 279 293 300
237 236 236 236 235 234 234 233 230 229 228 228 228 228 227 227 226 226 226 227 227 228 229 229 229 229 229 229 231 232 234 234 234 235 233 232 232 237 243 246 250 253 253 255 260 269 278 287 293
237 236 236 236 235 234 233 232 230 229 228 228 229 229 228 227 227 226 227 227 228 229 230 230 231 232 231 231 232 234 234 235 236 236 236 237 238 241 246 250 253 255 257 260 264 271 277 283 288
237 236 236 236 235 234 234 232 230 229 229 228 228 229 228 227 227 227 227 227 228 229 231 232 234 233 233 234 234 234 235 236 238 238 238 239 243 245 248 252 254 258 260 262 266 271 275 281 286
237 237 236 234 234 233 233 232 230 229 229 229 229 229 229 228 228 227 227 227 228 230 231 232 235 235 235 236 236 237 236 236 237 238 240 243 246 248 250 253 255 259 262 264 266 270 274 279 284
237 236 235 233 233 232 232 231 230 230 230 230 230 229 228 229 229 229 228 228 230 231 232 234 235 236 236 237 238 239 237 238 239 240 243 245 247 249 252 255 258 259 263 266 268 271 275 279 283
235 235 234 233 232 232 232 231 230 230 230 230 229 229 228 229 229 229 230 230 231 232 235 236 237 238 238 238 238 239 239 240 241 243 245 247 248 250 253 256 258 261 264 268 270 272 274 278 282
234 234 234 234 233 232 231 231 229 229 229 229 229 228 228 228 229 230 231 231 232 233 236 237 238 239 240 240 240 240 240 241 242 243 246 248 250 252 253 256 259 261 264 268 271 272 275 278 281
231 233 232 231 230 230 230 229 228 228 228 229 229 229 228 228 229 230 231 232 233 234 236 237 239 240 241 242 242 242 242 242 242 244 247 249 251 253 254 256 258 261 265 268 271 272 274 277 280
229 231 231 230 229 228 228 228 228 227 228 228 229 229 228 228 229 230 231 232 233 234 236 238 240 241 242 243 244 244 243 243 243 245 247 249 251 253 255 256 259 262 265 268 271 273 274 276 278
229 229 230 230 229 228 228 228 227 227 227 228 229 229 228 228 229 229 230 232 233 235 236 238 240 241 242 243 244 245 245 244 245 246 248 250 252 253 255 257 259 262 264 267 270 273 274 275 276
229 229 228 229 228 227 228 227 226 226 227 228 228 228 228 228 228 229 230 232 234 235 237 238 240 241 242 244 245 246 246 246 246 248 250 251 252 253 255 257 259 262 264 267 270 272 274 274 276
229 229 228 228 228 227 228 228 227 225 225 226 227 228 229 229 230 230 231 233 234 236 238 240 242 243 244 244 245 246 247 247 248 249 250 252 252 253 254 257 259 262 264 267 270 272 273 275 276
228 228 227 227 228 227 227 228 226 224 224 225 226 228 229 230 230 231 232 233 235 237 239 240 242 243 244 244 245 246 247 247 247 249 250 251 253 254 256 258 259 262 264 266 269 271 273 274 275
228 228 227 227 229 229 228 228 226 224 224 225 225 227 229 230 231 232 233 234 235 237 239 240 241 243 243 244 245 246 246 247 247 249 250 251 253 255 257 259 260 262 264 266 268 270 272 274 275
228 228 227 228 229 230 229 228 227 224 224 225 225 226 228 229 230 232 233 234 236 238 239 241 242 243 243 244 244 245 246 247 248 249 251 252 253 255 257 259 261 263 265 266 268 270 272 273 274
230 229 228 228 230 231 230 229 228 226 225 226 226 227 228 229 231 232 234 235 237 238 239 241 241 242 244 245 245 245 246 247 248 249 251 253 254 256 257 259 261 263 264 266 267 269 271 272 273
229 229 228 229 230 232 231 230 229 227 226 227 227 228 229 230 232 233 235 237 239 239 240 241 242 243 244 245 246 246 246 247 247 249 251 253 255 256 258 259 261 262 264 265 266 267 268 270 272
228 229 228 231 229 231 232 231 229 228 227 228 229 229 230 232 234 235 236 238 239 239 240 240 242 243 243 244 246 246 246 247 248 249 250 253 254 256 258 259 260 262 264 266 267 267 268 269 271
227 228 228 229 229 230 231 232 230 230 229 229 230 231 231 233 234 237 238 239 240 240 241 241 242 243 244 245 245 246 247 248 249 250 251 253 254 256 257 259 260 262 264 265 266 267 267 268 270
230 227 228 229 232 234 235 235 233 232 231 230 232 232 232 233 235 237 239 240 241 241 242 243 243 244 245 246 247 247 247 248 250 251 253 254 255 257 258 259 260 262 263 265 265 266 266 267 268
232 229 229 231 235 237 238 238 237 235 235 233 234 235 235 235 236 238 239 241 242 242 243 244 245 246 246 247 248 249 249 250 251 252 253 254 256 256 257 259 260 262 263 265 265 265 266 266 267
232 228 228 232 236 240 239 240 240 239 237 236 236 237 238 238 238 239 241 242 244 244 244 244 246 247 248 249 250 250 250 251 252 253 254 255 256 257 258 259 260 262 263 264 264 264 265 267 267
233 232 231 235 238 240 241 242 243 242 239 238 237 238 240 240 240 241 241 242 244 245 245 245 246 247 248 250 250 251 251 252 252 254 256 257 258 259 260 260 260 261 263 264 264 265 267 268 268
233 232 233 237 240 244 247 247 244 243 243 241 240 240 240 240 241 242 243 244 246 247 247 248 248 248 248 249 249 251 251 252 253 255 256 257 258 260 261 261 261 262 263 264 265 267 268 268 269
235 234 235 240 242 247 250 249 248 247 246 244 241 241 241 241 242 243 245 246 247 248 249 249 249 250 250 250 250 250 251 252 254 255 256 257 258 260 261 261 261 262 264 265 265 266 266 267 268
237 237 238 242 246 249 252 251 250 251 249 247 244 243 243 243 243 244 245 247 248 248 249 249 249 250 251 251 250 251 252 253 254 256 257 258 259 261 262 261 262 263 263 265 265 266 266 268 268
241 239 242 246 248 250 253 254 252 252 250 248 245 245 244 244 244 245 246 248 249 249 249 251 250 251 252 252 252 253 253 254 255 256 257 258 259 260 261 262 263 263 263 264 265 266 267 266 267
Height
5841 5843 5845 5847 5849 5851 5853 5857 5861 5864 5866 5868 5869 5871 5873 5876 5878 5881 5881 5880 5881 5882 5883 5884 5885 5885 5886 5887 5888 5888 5889 5889 5889 5890 5890 5890 5890 5890 5890 5890 5889 5889 5889 5889 5889 5889 5889 5888 5888
5834 5837 5839 5841 5843 5845 5850 5854 5857 5860 5862 5864 5865 5867 5869 5872 5873 5875 5876 5877 5879 5880 5881 5882 5883 5884 5884 5885 5886 5887 5887 5888 5888 5888 5888 5889 5889 5888 5888 5888 5888 5888 5888 5888 5888 5888 5888 5887 5887
5827 5829 5832 5834 5836 5841 5846 5850 5853 5855 5857 5859 5861 5863 5865 5868 5870 5872 5873 5875 5876 5877 5878 5879 5880 5881 5882 5883 5884 5885 5885 5886 5886 5887 5887 5887 5887 5887 5887 5887 5887 5887 5887 5887 5887 5887 5886 5886 5885
5819 5821 5824 5827 5831 5836 5840 5844 5847 5849 5852 5854 5856 5859 5861 5864 5866 5868 5870 5871 5873 5874 5875 5877 5878 5879 5880 5881 5882 5882 5883 5884 5885 5885 5885 5886 5886 5886 5886 5886 5886 5886 5886 5886 5885 5885 5885 5885 5884
5810 5812 5815 5819 5825 5830 5833 5837 5840 5843 5846 5849 5851 5854 5857 5860 5862 5864 5866 5867 5869 5871 5872 5874 5875 5876 5877 5878 5879 5880 5881 5882 5882 5883 5883 5884 5884 5884 5884 5884 5884 5884 5884 5884 5884 5884 5883 5883 5882
5800 5803 5807 5811 5818 5823 5826 5830 5833 5837 5840 5843 5845 5848 5851 5854 5857 5859 5861 5863 5865 5867 5869 5870 5872 5873 5874 5875 5876 5877 5878 5879 5880 5880 5881 5881 5882 5882 5882 5882 5882 5882 5882 5882 5882 5882 5881 5881 5880
5790 5793 5797 5804 5809 5814 5818 5822 5826 5830 5833 5836 5839 5843 5846 5849 5852 5854 5856 5859 5861 5863 5865 5867 5868 5869 5870 5872 5873 5874 5875 5876 5877 5878 5878 5879 5879 5880 5880 5880 5880 5880 5880 5880 5880 5879 5879 5879 5878
5777 5781 5786 5793 5799 5805 5809 5813 5818 5822 5826 5829 5833 5836 5840 5844 5846 5849 5851 5854 5856 5859 5861 5863 5864 5865 5867 5868 5869 5871 5872 5873 5874 5875 5876 5876 5877 5877 5877 5877 5877 5877 5877 5877 5877 5877 5876 5876 5875
5765 5769 5775 5783 5789 5795 5799 5804 5810 5814 5818 5822 5826 5830 5834 5837 5840 5843 5846 5849 5851 5854 5856 5858 5860 5861 5863 5864 5865 5867 5868 5869 5870 5871 5872 5873 5873 5874 5874 5874 5874 5875 5875 5874 5874 5874 5873 5873 5872
5751 5756 5766 5773 5778 5784 5789 5795 5800 5805 5810 5814 5818 5822 5826 5830 5833 5837 5840 5843 5846 5849 5851 5853 5855 5857 5858 5860 5861 5862 5864 5865 5866 5867 5868 5869 5870 5871 5871 5871 5871 5871 5871 5871 5871 5871 5870 5870 5869
5740 5746 5754 5759 5766 5772 5778 5784 5790 5796 5801 5806 5811 5815 5819 5823 5826 5830 5834 5837 5840 5843 5845 5848 5850 5852 5853 5855 5856 5858 5859 5860 5862 5863 5864 5865 5866 5867 5867 5867 5867 5868 5868 5867 5867 5867 5867 5866 5865
5730 5736 5742 5748 5754 5760 5766 5773 5779 5786 5793 5797 5802 5806 5811 5815 5819 5823 5827 5830 5834 5836 5839 5842 5844 5846 5848 5850 5851 5853 5854 5855 5857 5858 5859 5861 5861 5862 5863 5863 5863 5863 5863 5863 5863 5863 5862 5862 5861
5719 5726 5732 5738 5744 5750 5756 5762 5769 5776 5783 5788 5793 5798 5803 5807 5811 5815 5819 5823 5826 5830 5832 5835 5838 5840 5842 5844 5845 5847 5848 5850 5852 5853 5854 5855 5856 5857 5858 5858 5859 5859 5859 5859 5858 5858 5858 5857 5857
5710 5716 5722 5728 5734 5740 5746 5752 5758 5766 5773 5779 5784 5789 5794 5799 5803 5807 5811 5815 5819 5822 5826 5828 5831 5833 5835 5837 5839 5841 5842 5844 5846 5847 5848 5849 5851 5851 5852 5853 5854 5854 5854 5854 5853 5853 5853 5852 5852
5701 5707 5713 5718 5724 5731 5737 5742 5749 5757 5763 5769 5775 5781 5786 5791 5795 5800 5804 5808 5811 5815 5818 5821 5823 5826 5828 5830 5832 5834 5836 5837 5839 5841 5842 5843 5845 5846 5846 5847 5848 5848 5848 5848 5848 5848 5847 5847 5846
5691 5697 5703 5710 5715 5722 5728 5734 5740 5746 5753 5760 5766 5772 5777 5782 5787 5792 5796 5800 5803 5806 5810 5813 5815 5818 5820 5822 5824 5827 5829 5830 5832 5834 5835 5837 5838 5839 5840 5841 5841 5842 5842 5842 5842 5842 5841 5841 5840
5682 5688 5695 5703 5707 5713 5719 5725 5731 5737 5744 5751 5757 5763 5768 5774 5779 5783 5787 5791 5795 5798 5801 5804 5807 5810 5812 5814 5816 5819 5821 5823 5825 5827 5828 5829 5831 5832 5833 5834 5834 5835 5835 5835 5835 5835 5835 5834 5834
5677 5682 5689 5694 5700 5705 5711 5717 5723 5729 5736 5742 5748 5754 5760 5765 5770 5775 5779 5783 5786 5789 5793 5796 5799 5801 5803 5806 5808 5810 5813 5815 5817 5819 5820 5822 5823 5824 5825 5826 5827 5828 5828 5828 5828 5828 5828 5827 5827
5673 5677 5682 5687 5692 5698 5704 5709 5715 5721 5727 5734 5740 5745 5751 5756 5761 5765 5770 5774 5777 5781 5784 5787 5790 5792 5795 5797 5800 5802 5804 5806 5809 5810 5812 5813 5815 5816 5818 5819 5819 5820 5820 5821 5821 5821 5820 5820 5819
5667 5671 5676 5681 5686 5691 5696 5701 5707 5713 5719 5726 5732 5737 5742 5747 5752 5756 5761 5765 5768 5772 5775 5778 5781 5783 5786 5788 5791 5793 5795 5798 5800 5801 5803 5805 5807 5808 5809 5810 5811 5811 5812 5812 5812 5812 5812 5812 5811
5662 5667 5671 5676 5680 5684 5689 5695 5700 5705 5711 5717 5723 5728 5733 5739 5743 5747 5752 5756 5759 5763 5766 5769 5771 5774 5776 5779 5781 5783 5786 5788 5790 5792 5794 5796 5797 5799 5800 5801 5802 5803 5803 5804 5804 5804 5804 5804 5803
5658 5663 5667 5671 5675 5679 5683 5687 5693 5698 5703 5709 5714 5720 5725 5730 5734 5738 5742 5746 5749 5753 5756 5759 5762 5764 5766 5769 5771 5774 5776 5779 5781 5783 5785 5786 5788 5789 5790 5791 5792 5793 5794 5794 5794 5795 5795 5794 5794
5655 5659 5663 5667 5671 5675 5678 5682 5687 5691 5696 5702 5707 5712 5716 5721 5725 5729 5732 5736 5739 5742 5745 5748 5751 5754 5756 5759 5761 5764 5766 5768 5771 5772 5774 5776 5777 5779 5780 5781 5782 5783 5783 5784 5784 5784 5784 5784 5784
5652 5656 5659 5662 5665 5669 5673 5676 5680 5685 5690 5695 5700 5704 5708 5712 5716 5719 5722 5726 5728 5731 5735 5738 5741 5743 5746 5748 5751 5753 5756 5758 5760 5762 5764 5765 5766 5768 5769 5770 5771 5772 5773 5773 5774 5774 5774 5774 5774
5649 5652 5655 5657 5660 5663 5668 5670 5675 5679 5683 5688 5692 5696 5700 5703 5706 5710 5713 5716 5718 5721 5724 5727 5730 5733 5736 5738 5740 5743 5745 5747 5749 5751 5753 5754 5755 5757 5758 5759 5760 5761 5762 5762 5763 5763 5764 5763 5763
5645 5648 5652 5653 5656 5659 5662 5665 5670 5673 5677 5680 5684 5687 5691 5694 5697 5700 5703 5706 5709 5711 5714 5717 5719 5722 5725 5727 5729 5732 5734 5737 5739 5741 5742 5743 5745 5746 5747 5748 5749 5749 5750 5751 5752 5752 5752 5753 5752
5641 5644 5647 5650 5651 5654 5657 5660 5664 5667 5670 5673 5676 5679 5682 5685 5688 5691 5694 5697 5698 5701 5704 5707 5709 5711 5713 5715 5718 5720 5723 5725 5728 5729 5731 5732 5733 5734 5735 5736 5737 5738 5739 5739 5740 5741 5741 5741 5741
5639 5641 5644 5645 5647 5649 5652 5655 5658 5661 5663 5666 5668 5670 5673 5676 5679 5682 5684 5687 5689 5691 5693 5696 5698 5700 5702 5704 5706 5709 5711 5714 5716 5718 5719 5721 5722 5723 5724 5725 5726 5726 5727 5728 5728 5729 5729 5729 5729
5635 5638 5639 5641 5643 5645 5646 5652 5653 5654 5656 5658 5660 5662 5664 5667 5670 5672 5675 5677 5679 5681 5683 5685 5687 5688 5690 5692 5694 5697 5699 5702 5704 5706 5707 5709 5710 5711 5712 5713 5714 5714 5715 5715 5716 5716 5716 5717 5717
5631 5633 5635 5637 5638 5640 5641 5647 5646 5647 5648 5650 5652 5654 5656 5659 5661 5663 5665 5667 5669 5671 5673 5674 5676 5678 5679 5681 5683 5685 5687 5690 5692 5693 5695 5696 5697 5698 5699 5700 5701 5701 5702 5703 5703 5704 5704 5704 5704